PST,Max TemperatureF,Mean TemperatureF,Min TemperatureF,Max Dew PointF,MeanDew PointF,Min DewpointF,Max Humidity, Mean Humidity, Min Humidity, Max Sea Level PressureIn, Mean Sea Level PressureIn, Min Sea Level PressureIn, Max VisibilityMiles, Mean VisibilityMiles, Min VisibilityMiles, Max Wind SpeedMPH, Mean Wind SpeedMPH, Max Gust SpeedMPH,PrecipitationIn, CloudCover, Events, WindDirDegrees
2014-1-1,67,46,25,40,31,25,100,61,22,30.19,30.16,30.10,10,6,0,6,1,7,0.00,1,Fog,259
2014-1-2,64,47,30,39,35,29,96,65,34,30.17,30.10,30.04,10,10,9,6,1,6,0.00,2,,25
2014-1-3,70,51,31,39,36,31,100,66,31,30.06,29.99,29.92,10,10,8,9,2,11,0.00,1,Fog,169
2014-1-4,69,50,30,40,34,29,100,66,32,30.06,30.00,29.96,10,8,1,8,1,9,0.00,0,Fog,154
2014-1-5,68,46,23,31,26,19,100,58,16,30.19,30.14,30.06,10,10,7,7,2,9,0.00,0,,150
2014-1-6,59,45,30,32,29,25,85,58,30,30.27,30.20,30.15,10,10,10,8,2,10,0.00,3,,277
2014-1-7,64,49,34,44,35,29,96,64,31,30.19,30.15,30.09,10,8,2,8,3,10,0.00,3,,163
2014-1-8,60,47,33,49,40,34,100,84,67,30.23,30.17,30.12,10,4,0,8,2,10,0.00,4,Fog,42
2014-1-9,67,51,35,46,39,29,100,63,26,30.25,30.20,30.15,10,7,0,17,6,21,0.00,4,Fog,302
2014-1-10,64,49,33,46,41,33,100,72,44,30.29,30.21,30.15,10,8,0,8,2,10,0.00,2,Fog,187
2014-1-11,55,46,36,52,42,37,100,86,71,30.28,30.20,30.13,10,3,0,10,3,12,0.08,6,Fog-Rain,290
2014-1-12,63,48,33,43,37,33,100,67,34,30.39,30.30,30.26,10,6,0,20,6,22,0.00,1,Fog,338
2014-1-13,67,49,31,40,37,31,100,67,34,30.44,30.37,30.33,10,10,10,14,4,17,0.00,0,,304
2014-1-14,69,48,26,38,31,26,100,64,28,30.45,30.39,30.31,10,4,0,7,1,8,0.00,1,Fog,258
2014-1-15,71,50,28,36,33,28,100,65,29,30.34,30.28,30.19,10,10,6,7,2,10,0.00,0,,334
2014-1-16,73,49,25,35,31,26,100,60,19,30.22,30.17,30.10,10,7,0,7,3,9,0.00,0,Fog,308
2014-1-17,71,49,27,38,32,25,100,62,24,30.18,30.13,30.08,10,9,5,7,2,8,0.00,0,,240
2014-1-18,73,50,27,34,29,24,92,55,17,30.16,30.09,30.04,10,10,8,7,2,8,0.00,0,,261
2014-1-19,70,48,26,34,30,26,92,58,24,30.13,30.08,30.02,10,10,8,7,2,8,0.00,0,,221
2014-1-20,70,49,27,34,30,26,100,61,22,30.22,30.15,30.10,10,10,10,8,2,10,0.00,0,,170
2014-1-21,73,50,26,33,30,24,100,58,16,30.25,30.19,30.13,10,10,10,7,1,9,0.00,1,,275
2014-1-22,75,52,28,35,30,24,100,58,15,30.14,30.01,29.89,10,10,3,8,2,10,0.00,0,,171
2014-1-23,75,51,27,36,27,16,96,54,11,29.99,29.89,29.83,10,10,10,20,4,25,0.00,0,,108
2014-1-24,73,53,33,35,30,25,89,54,18,30.25,30.13,29.99,10,8,5,17,2,23,0.00,2,,182
2014-1-25,76,57,37,36,32,25,76,46,15,30.25,30.17,30.09,10,10,10,10,4,14,0.00,1,,320
2014-1-26,73,53,33,44,37,29,100,60,20,30.12,30.07,29.99,10,8,0,9,3,12,0.00,1,Fog,105
2014-1-27,61,51,41,48,46,41,100,77,53,30.19,30.12,30.04,10,6,0,9,3,10,T,6,Fog,179
2014-1-28,66,57,47,57,51,46,100,80,60,30.24,30.19,30.16,10,9,6,8,3,9,T,7,Rain,165
2014-1-29,63,57,50,57,52,43,100,81,61,30.18,30.10,29.96,10,8,2,17,4,22,0.01,8,Rain,172
2014-1-30,66,56,46,48,42,33,100,66,31,29.94,29.86,29.80,10,10,7,15,5,19,0.01,5,,317
2014-1-31,65,50,35,41,31,16,100,58,15,30.07,30.00,29.90,10,10,10,24,10,30,0.00,0,,340